Location: Newark
(45.4422°N, 16.2769°E)
Time: 19:06:35
(UTC+00:00)

Courier 1B Rocket - Pass Details

Date: 14 December 2019
Orbit: 920 x 1202 km, 28.2° (Epoch: 28 January)

Event Time Altitude Azimuth Distance (km) Brightness Sun altitude
Rises 07:57:58 0° 247° (WSW) 3,737 7.9 11.1°
Reaches altitude 10° 08:03:39 10° 209° (SSW) 2,704 7.7 11.7°
Maximum altitude 08:04:41 10° 200° (SSW) 2,662 7.8 11.8°
Drops below altitude 10° 08:05:43 10° 190° (S) 2,678 8.0 11.9°
Sets 08:11:11 0° 152° (SSE) 3,568 9.9 12.5°
